Retour au catalogue

SIRIUS 2

ActifCommunicationsMEO
NORAD 26483·PAYLOAD·🇺🇸 United States

Lancé Sep 5, 2000 depuis Baikonur Cosmodrome

Loading…

Prochains Passages (prochaines 24 heures)

TLE

FraisSource: Space-Track

Époque: Sep 11, 2026, 19:39 UTC

1 26483U 00051A   26254.81890775 -.00000047  00000-0  00000-0 0  9995
2 26483  67.1816  41.3573 0210349 246.5152 111.7722  1.64981933 69865

Suivez SIRIUS 2 en temps réel avec AllMySat

Download on the App Store